Location: Chandrammap?lem
(16.9200°N, 81.0051°E)
Time: 09:45:14
(UTC+00:00)

SJ-6B - Pass Details

Date: 29 May 2024
Orbit: 489 x 548 km, 97.4° (Epoch: 14 June)

Event Time Altitude Azimuth Distance (km) Brightness Sun altitude
Exits shadow 14:04:56 15° 160° (SSE) 1,442 4.5 -13.7°
Maximum altitude 14:07:56 68° 78° (ENE) 550 2.6 -14.4°
Drops below altitude 10° 14:11:35 10° 355° (N) 1,708 5.8 -15.1°
Sets 14:13:39 0° 353° (N) 2,583 6.8 -15.6°
